Location: Unspecified
(0.0000°N, 0.0000°E)
Time: 08:46:34
(UTC+00:00)

Shinsei - Pass Details

Date: 13 December 2023
Orbit: 869 x 1860 km, 32.1° (Epoch: 03 March)

Event Time Altitude Azimuth Distance (km) Brightness Sun altitude
Exits shadow 03:15:18 11° 34° (NNE) 2,875 12.0 -35.9°
Drops below altitude 10° 03:15:21 10° 34° (NNE) 2,890 12.0 -35.9°
Sets 03:18:02 0° 41° (NE) 3,753 12.7 -35.3°
